Regional Weather Roundup
Issued by NWS Upton, NY

Current Version | Previous Version | Text Only | Print | Product List | Glossary Off
Versions: 1 2 3 4 5 6 7 8 9 10 11 12 13 14 15 16 17 18 19 20 21 22 23 24 25 26 27
000 ASUS41 KOKX 300405 RWROKX REGIONAL WEATHER ROUNDUP NATIONAL WEATHER SERVICE NEW YORK NY 1200 AM EDT THU JUN 30 2016 NOTE: "FAIR" INDICATES FEW OR NO CLOUDS BELOW 12,000 FEET WITH NO SIGNIFICANT WEATHER AND/OR OBSTRUCTIONS TO VISIBILITY. NYZ071-072-176-178-NJZ106-104-300500- NEW YORK CITY METRO AREA CITY SKY/WX TMP DP RH WIND PRES REMARKS CENTRAL PARK CLEAR 73 57 57 CALM 29.97S LAGUARDIA APRT CLEAR 75 58 55 NW12 29.93S KENNEDY INTL PTCLDY 77 54 44 NW10 29.94R NEWARK/LIBERTY CLEAR 74 57 55 NW8 29.94S BRNX BOT. GARD N/A 72 55 56 W2 29.96S TETERBORO CLEAR 72 56 57 NW6 29.93S $$ NYZ177-179-078>081-300500- LONG ISLAND NEW YORK CITY SKY/WX TMP DP RH WIND PRES REMARKS FARMINGDALE NOT AVBL ISLIP PTCLDY 72 58 61 NW8 29.92R SHIRLEY CLEAR 68 65 90 NW5 29.92S RIVERHEAD NOT AVBL WESTHAMPTON FOG 62 60 93 CALM 29.93S VSB 3/4 SOUTHAMPTON N/A 68 66 94 W2 29.87S BRIDGEHAMPTON NOT AVBL EAST HAMPTON FAIR 68 66 94 W5 29.90S MONTAUK POINT N/A 68 66 93 NW3 29.92R $$ NYZ052-065-067-300500- HUDSON VALLEY CITY SKY/WX TMP DP RH WIND PRES REMARKS WHITE PLAINS CLEAR 68 58 70 NW6 29.94R NEWBURGH NOT AVBL MONTGOMERY CLEAR 64 58 80 CALM 29.96R POUGHKEEPSIE CLEAR 65 59 81 CALM 29.94R ALBANY PTCLDY 68 56 65 CALM 29.96R $$ NJZ001-105-106-008-010-013-015-019>022-104-300500- NEW JERSEY CITY SKY/WX TMP DP RH WIND PRES REMARKS NEWARK/LIBERTY CLEAR 74 57 55 NW8 29.94S TETERBORO CLEAR 72 56 57 NW6 29.93S CALDWELL CLEAR 67 57 70 CALM 29.96R MORRISTOWN CLEAR 61 57 88 CALM 29.96S SOMERVILLE CLEAR 63 60 90 CALM 29.95R SUSSEX CLEAR 60 59 96 CALM 29.97S ANDOVER N/A 60 58 92 CALM 29.98R TRENTON CLEAR 69 57 65 NW5 29.96S MILLVILLE CLEAR 64 59 83 W6 29.98R ATLANTIC CITY CLEAR 68 57 68 NW7 29.97R WRIGHTSTOWN NOT AVBL TOMS RIVER MOCLDY 65 60 84 W3 29.97R BELMAR CLEAR 69 58 67 NW5 29.96S $$ PAZ047>061-062-071-300500- EASTERN PENNSYLVANIA CITY SKY/WX TMP DP RH WIND PRES REMARKS PHILADELPHIA CLEAR 74 56 53 NW9 29.98R ALLENTOWN CLEAR 66 57 72 W5 29.99R SCRANTON CLEAR 62 56 80 E3 30.01R $$ CTZ002-004>006-009-010-012-RIZ004-006-007-MAZ004-011-015-300500- SOUTHERN NEW ENGLAND IN CT CITY SKY/WX TMP DP RH WIND PRES REMARKS BRADLEY INTL MOCLDY 72 56 57 N9 29.91R HARTFORD MOCLDY 76 57 51 NE5 29.91R DANBURY CLEAR 64 58 80 CALM 29.96R WTRBRY/OXFORD N/A 66 55 68 N5 29.96R BRIDGEPORT CLEAR 72 58 61 NW6 29.92R MERIDEN PTCLDY 66 60 81 CALM 29.92R NEW HAVEN CLEAR 67 60 78 CALM 29.91S CHESTER FAIR 68 61 77 NW3 29.93R GROTON CLEAR 66 66 100 CALM 29.90R WILLIMANTIC PTCLDY 68 62 81 CALM 29.91S IN RI CITY SKY/WX TMP DP RH WIND PRES REMARKS PROVIDENCE PTCLDY 71 67 87 W6 29.89S BLOCK ISLAND CLEAR 67 66 97 W9 29.91S WESTERLY CLEAR 68 64 87 CALM 29.90S FOG IN MA CITY SKY/WX TMP DP RH WIND PRES REMARKS BOSTON CLEAR 74 64 71 W7 29.88R WORCESTER CLOUDY 68 55 63 NW10 29.93S WESTFIELD CLOUDY 72 56 57 NW5 29.92R PROVINCETOWN FOG 67 66 97 SW9 29.88S VSB 1/2 NANTUCKET FOG 65 64 97 SW7 29.90S VSB 1/4 $$ ANZ330-335-338-340-345-350-353-355-300500- COASTAL MARINE OBSERVATIONS STATION/POSITION TIME SKY/WX TEMP WIND PRES VSBY WAVE AIR SEA DIR/SP/G HT/PER (UTC) (F) (DEG/KT/KT) (MB) (MI) (FT/S) NY HARB ENTRANCE 0250 73 71 240/ 8/ 8 1013.0 3/ 8 20S FIRE ISLAND 0250 71 70 260/ 10/ 12 1012.7 3/ 8 GREAT SOUTH BAY 0315 75 76 290/ 6/ 10 N/A 23 SSW MONTAUK P 0250 69 69 240/ 8/ 10 1013.0 3/ 8 15 E BARNEGAT LI 0322 72 N/A 3/ 8 HUDSON CANYON 0250 68 69 1013.2 3/ 8 KINGS POINT 0300 67 1013.4 EXECUTION ROCKS NOT AVBL CENTRAL LI SOUND 0315 74 290/ 6/ 8 N/A 1 EASTERN LI SOUND 0300 64 62 300/ 2/ 4 N/A ROBBINS REEF 0306 320/ 8/ 11 1013.2 $$ >>>>>>>>>>>>>>>>>>>>>>>>>>>> KEY <<<<<<<<<<<<<<<<<<<<<<<<<<< > < > SKY/WX - SKY CONDITION/PRESENT WEATHER < > TMP - TEMPERATURE IN FAHRENHEIT < > DP - DEWPOINT IN FAHRENHEIT < > RH - RELATIVE HUMIDITY IN PERCENT < > WIND - DIRECTION AND SPEED IN MPH < > PRES - MEAN SEA LEVEL PRESSURE IN INCHES OF HG < > WCI - WIND CHILL INDEX < > VSB - VISIBILITY IN MILES < > HX - HEAT INDEX < > TC - TEMPERATURE IN CELSIUS < > VRB - VARIABLE WIND DIRECTION < > < >>>>>>>>>>>>>>>>>>>>>>>>>>>> KEY <<<<<<<<<<<<<<<<<<<<<<<<<<<

USA.gov is the U.S. government's official web portal to all federal, state and local government web resources and services.